(297620) = 2001 TQ32

Discovered at Socorro on 2001-10-14 by LINEAR.

Orbit

Orbit type: Main Belt

Note: WebGL enabled browser required.

epoch2023-02-25.0
epoch JD2460000.5
perihelion date2022-03-09.67246
perihelion JD2459648.17246
argument of perihelion (°)26.19376
ascending node (°)345.70624
inclination (°)4.81123
eccentricity0.2034489
perihelion distance (AU)1.8118496
Tisserand w.r.t. Jupiter3.6
ΔV w.r.t. Earth (km/sec)8.4
semimajor axis (AU)2.2746181
mean anomaly (°)101.22498
mean daily motion (°/day)0.28730360
aphelion distance (AU)2.737
period (years)3.43
P-vector [x]0.97812499
P-vector [y]0.17307919
P-vector [z]0.11539109
Q-vector [x]-0.20698478
Q-vector [y]0.86501673
Q-vector [z]0.45705946
absolute magnitude17.69
phase slope0.15
uncertainty0
referenceMPO 730361
observations used281
oppositions10
arc length (days)7772
first opposition used2001
last opposition used2023
residual rms (arc-secs)0.82
perturbers coarse indicatorM-v
perturbers precise indicator003Ek
first observation date used2001-10-14.0
last observation date used2023-01-24.0
computer nameMPCLINUX
JD of orbit computation2456376.499964
perihelion JD uncertainty (days)2.5720E-04
argument of perihelion uncertainty (°)1.2320E-04
ascending node uncertainty (°)9.4131E-05
inclination uncertainty (°)1.1376E-05
eccentricity uncertainty 4.3568E-07
perihelion distance uncertainty (AU)1.0481E-06
Minimum Orbit Intersection Distances (in AU)
for orbit epoch: 2460000.5, reference: E2023-BC6
Mercury1.46096
Venus1.09094
Earth0.81136
Mars0.4103
Jupiter2.72462
Saturn6.71479
Uranus15.7388
Neptune27.9485

Observations

292 total observations over interval: 2001 10 14.32638 – 2023 01 24.752362
These data are available for download (format description).

Date (UT) J2000 RA J2000 Dec Magn Location Ref
2001 10 14.32638 03 54 37.83 +27 57 43.8 19.4   704 – Lincoln Laboratory ETS, New Mexico MPS 38353
2001 10 14.34235 03 54 37.44 +27 57 48.4 20.2   704 – Lincoln Laboratory ETS, New Mexico MPS 38353
2001 10 14.35810 03 54 37.13 +27 57 50.1 20.0   704 – Lincoln Laboratory ETS, New Mexico MPS 38353
2001 10 14.37387 03 54 36.83 +27 57 55.3 19.9   704 – Lincoln Laboratory ETS, New Mexico MPS 38353
2001 10 15.34083 03 54 19.94 +28 01 57.9 19.6   704 – Lincoln Laboratory ETS, New Mexico MPS 38353
2001 10 15.35660 03 54 19.60 +28 02 01.3 20.1   704 – Lincoln Laboratory ETS, New Mexico MPS 38353
2001 10 15.37236 03 54 19.26 +28 02 05.8 19.9   704 – Lincoln Laboratory ETS, New Mexico MPS 38353
2001 10 15.38813 03 54 18.87 +28 02 09.2 19.5   704 – Lincoln Laboratory ETS, New Mexico MPS 38353
2001 11 10.37637 03 33 36.21 +28 39 41.3 18.9   704 – Lincoln Laboratory ETS, New Mexico MPS 40746
2001 11 10.39075 03 33 35.19 +28 39 40.5 19.3   704 – Lincoln Laboratory ETS, New Mexico MPS 40746
2001 11 10.40515 03 33 34.18 +28 39 38.2 19.0   704 – Lincoln Laboratory ETS, New Mexico MPS 40746
2001 11 10.43385 03 33 32.26 +28 39 37.7 19.6   644 – Palomar Mountain/NEAT MPS 44141
2001 11 10.43405 03 33 32.14 +28 39 36.2 19.4   704 – Lincoln Laboratory ETS, New Mexico MPS 40746
2001 11 10.44500 03 33 31.47 +28 39 36.4 19.7   644 – Palomar Mountain/NEAT MPS 44141
2001 11 10.45539 03 33 30.75 +28 39 35.5 19.8   644 – Palomar Mountain/NEAT MPS 44141
2001 11 11.28790 03 32 34.81 +28 38 15.8 19.2   704 – Lincoln Laboratory ETS, New Mexico MPS 40746
2001 11 11.30230 03 32 33.73 +28 38 14.5 20.2   704 – Lincoln Laboratory ETS, New Mexico MPS 40746
2001 11 11.31667 03 32 32.75 +28 38 12.7 20.0   704 – Lincoln Laboratory ETS, New Mexico MPS 40746
2001 11 11.33109 03 32 31.71 +28 38 12.1 19.7   704 – Lincoln Laboratory ETS, New Mexico MPS 40746
2001 11 11.34548 03 32 30.69 +28 38 10.5 19.8   704 – Lincoln Laboratory ETS, New Mexico MPS 40746
2001 11 19.16394 03 23 37.68 +28 18 34.7 18.7 R 699 – Lowell Observatory-LONEOS MPS 41998
2001 11 19.18107 03 23 36.48 +28 18 31.6   699 – Lowell Observatory-LONEOS MPS 41998
2001 11 19.19826 03 23 35.25 +28 18 28.3   699 – Lowell Observatory-LONEOS MPS 41998
2001 11 19.21546 03 23 34.05 +28 18 25.8   699 – Lowell Observatory-LONEOS MPS 41998
2001 11 24.21694 03 18 09.54 +28 00 17.5 19.6   704 – Lincoln Laboratory ETS, New Mexico MPS 54969
2001 11 24.23202 03 18 08.56 +28 00 12.1 19.8   704 – Lincoln Laboratory ETS, New Mexico MPS 54969
2001 11 24.24780 03 18 07.54 +28 00 10.4 20.0   704 – Lincoln Laboratory ETS, New Mexico MPS 54969
2001 11 24.26231 03 18 06.61 +28 00 07.6 20.2   704 – Lincoln Laboratory ETS, New Mexico MPS 54969
2001 12 10.20968 03 05 15.64 +26 49 04.1 20.2 R 446 – Kingsnake Observatory, Seguin MPS 44141
2001 12 10.25376 03 05 14.17 +26 48 53.3 20.0 R 446 – Kingsnake Observatory, Seguin MPS 44141
2001 12 10.29775 03 05 12.65 +26 48 39.4 19.7 R 446 – Kingsnake Observatory, Seguin MPS 44141
2002 01 08.18511 03 06 42.00 +25 19 15.7 20.9   704 – Lincoln Laboratory ETS, New Mexico MPS 46620
2002 01 08.20026 03 06 42.36 +25 19 14.8 20.1   704 – Lincoln Laboratory ETS, New Mexico MPS 46620
2002 01 08.21562 03 06 42.89 +25 19 14.1 20.3   704 – Lincoln Laboratory ETS, New Mexico MPS 46620
2006 01 31.28959 10 09 47.73 +14 41 19.2 21.5 V 691 – Steward Observatory, Kitt Peak-Spacewatch MPS 161649
2006 01 31.30692 10 09 46.64 +14 41 23.8 21.1 V 691 – Steward Observatory, Kitt Peak-Spacewatch MPS 161649
2006 01 31.32428 10 09 45.60 +14 41 27.9 21.4 V 691 – Steward Observatory, Kitt Peak-Spacewatch MPS 161649
2006 02 02.35099 10 07 42.24 +14 49 50.2 21.0 V G96 – Mt. Lemmon Survey MPS 161649
2006 02 02.35727 10 07 41.84 +14 49 51.3 21.2 V G96 – Mt. Lemmon Survey MPS 161649
2006 02 02.36352 10 07 41.41 +14 49 53.2 21.1 V G96 – Mt. Lemmon Survey MPS 161649
2006 02 02.36974 10 07 41.05 +14 49 54.4 21.2 V G96 – Mt. Lemmon Survey MPS 161649
2010 04 06.27899 13 02 34.90 -11 01 37.9 22.0 V G96 – Mt. Lemmon Survey MPS 320585
2010 04 06.28504 13 02 34.58 -11 01 35.0 21.4 V G96 – Mt. Lemmon Survey MPS 320585
2010 04 06.29101 13 02 34.22 -11 01 34.3 21.3 V G96 – Mt. Lemmon Survey MPS 320585
2010 04 06.29692 13 02 33.86 -11 01 33.0 21.8 V G96 – Mt. Lemmon Survey MPS 320585
2011 08 01.65689 22 48 11.48 -11 29 32.0 19.5 V E12 – Siding Spring Survey MPS 387969
2011 08 01.67053 22 48 11.12 -11 29 31.8 19.6 V E12 – Siding Spring Survey MPS 387969
2011 08 01.68413 22 48 10.72 -11 29 31.2 19.4 V E12 – Siding Spring Survey MPS 387969
2011 08 29.62293 22 26 22.74 -11 53 36.6 18.8 V E12 – Siding Spring Survey MPS 389136
2011 08 29.63431 22 26 21.98 -11 53 37.3 18.8 V E12 – Siding Spring Survey MPS 389136
2011 08 29.64573 22 26 21.30 -11 53 38.3 19.0 V E12 – Siding Spring Survey MPS 389136
2011 08 29.65728 22 26 20.58 -11 53 38.0 18.8 V E12 – Siding Spring Survey MPS 389136
2011 09 15.34713 22 10 53.569 -11 58 43.18 19.0 i F51 – Pan-STARRS 1, Haleakala MPS 391046
2011 09 15.35944 22 10 52.953 -11 58 42.90 19.0 i F51 – Pan-STARRS 1, Haleakala MPS 391046
2011 09 16.48770 22 10 01.99 -11 57 42.4 18.4 V E12 – Siding Spring Survey MPS 391046
2011 09 16.49910 22 10 01.34 -11 57 41.7 19.1 V E12 – Siding Spring Survey MPS 391046
2011 09 16.51040 22 10 00.80 -11 57 42.6 19.0 V E12 – Siding Spring Survey MPS 391046
2011 09 16.52172 22 10 00.22 -11 57 41.0 18.3 V E12 – Siding Spring Survey MPS 391046
2011 09 20.22911 22 07 27.85 -11 53 46.0 18.3   704 – Lincoln Laboratory ETS, New Mexico MPS 391046
2011 09 20.24168 22 07 27.39 -11 53 44.4 19.5   704 – Lincoln Laboratory ETS, New Mexico MPS 391046
2011 09 20.26145 22 07 26.61 -11 53 43.2 19.2 V 703 – Catalina Sky Survey MPS 391046
2011 09 20.26681 22 07 26.32 -11 53 42.6 19.5   704 – Lincoln Laboratory ETS, New Mexico MPS 391046
2011 09 20.26894 22 07 26.29 -11 53 42.9 19.1 V 703 – Catalina Sky Survey MPS 391046
2011 09 20.27646 22 07 26.00 -11 53 41.4 19.4 V 703 – Catalina Sky Survey MPS 391046
2011 09 20.28395 22 07 25.64 -11 53 40.7 19.7 V 703 – Catalina Sky Survey MPS 391046
2011 09 24.21192 22 05 13.84 -11 47 07.2 19.9 V G96 – Mt. Lemmon Survey MPS 392576
2011 09 24.21715 22 05 13.70 -11 47 06.2 20.1 V G96 – Mt. Lemmon Survey MPS 392576
2011 09 24.22234 22 05 13.52 -11 47 05.5 20.0 V G96 – Mt. Lemmon Survey MPS 392576
2011 09 24.22752 22 05 13.34 -11 47 05.0 19.8 V G96 – Mt. Lemmon Survey MPS 392576
2011 10 19.19222 22 04 52.17 -10 09 34.1 19.7 V G96 – Mt. Lemmon Survey MPS 396179
2011 10 19.19747 22 04 52.32 -10 09 32.2 19.8 V G96 – Mt. Lemmon Survey MPS 396179
2011 10 19.20268 22 04 52.42 -10 09 30.4 19.8 V G96 – Mt. Lemmon Survey MPS 396179
2011 10 19.20796 22 04 52.57 -10 09 28.6 19.7 V G96 – Mt. Lemmon Survey MPS 396179
2011 10 20.21648 22 05 21.37 -10 03 36.2 20.4 V G96 – Mt. Lemmon Survey MPS 396179
2011 10 20.21954 22 05 21.44 -10 03 35.1 20.6 V G96 – Mt. Lemmon Survey MPS 396179
2011 10 20.22258 22 05 21.55 -10 03 33.8 20.6 V G96 – Mt. Lemmon Survey MPS 396179
2011 10 20.22565 22 05 21.66 -10 03 32.5 20.2 V G96 – Mt. Lemmon Survey MPS 396179
2013 03 02.35384 10 42 01.94 +09 06 26.9 20.0 V G96 – Mt. Lemmon Survey MPS 459125
2013 03 02.36192 10 42 01.44 +09 06 28.2 20.9 V G96 – Mt. Lemmon Survey MPS 459125
2013 03 02.36720 10 42 01.08 +09 06 30.3 20.6 V G96 – Mt. Lemmon Survey MPS 459125
2013 03 02.37252 10 42 00.72 +09 06 31.6 20.5 V G96 – Mt. Lemmon Survey MPS 459125
2013 03 07.31817 10 36 52.74 +09 27 57.1 20.9 V G96 – Mt. Lemmon Survey MPS 459125
2013 03 07.32404 10 36 52.34 +09 27 58.6 20.5 V G96 – Mt. Lemmon Survey MPS 459125
2013 03 07.32991 10 36 52.02 +09 27 58.9 20.6 V G96 – Mt. Lemmon Survey MPS 459125
2013 03 07.33582 10 36 51.58 +09 28 01.1 20.5 V G96 – Mt. Lemmon Survey MPS 459125
2015 12 04.46088 08 01 48.138 +27 48 47.11 21.0 r F51 – Pan-STARRS 1, Haleakala MPS 659364
2015 12 04.47316 08 01 47.835 +27 48 49.04 20.9 r F51 – Pan-STARRS 1, Haleakala MPS 659364
2015 12 04.48543 08 01 47.557 +27 48 51.00 21.0 r F51 – Pan-STARRS 1, Haleakala MPS 659364
2015 12 04.49769 08 01 47.230 +27 48 53.09 20.9 r F51 – Pan-STARRS 1, Haleakala MPS 659364
2016 01 02.42687 07 36 12.78 +29 03 47.1 21.4 V G96 – Mt. Lemmon Survey MPS 667866
2016 01 02.43262 07 36 12.30 +29 03 47.6 20.7 V G96 – Mt. Lemmon Survey MPS 667866
